STARLINK-38162, 100159

Orbit data source: Space-Track

STARLINK-38162, 100159 is a payload satellite owned by SpaceX/Seattle (US) in SSO that was launched on Sat, 25 Jul 2026 UTC launched from the Air Force Western Test Range (AFWTR). Payload-class satellites include a variety of spacecraft equipped with specific instruments for various scientific and technological missions. These include communications satellites like Starlink; space stations such as the ISS; scientific satellites like the Hubble; Earth observation satellites from companies like Planet Labs, Umbra, and HawkEye 360; GPS; miniature CubeSats for education and research; and military/defense satellites.

Not visible in the next 10 days
Identifier
100159, 2026-171M
Orbit
SSO
Country
Flag of USUS
Related business
Manufacturer
SpaceX/Seattle
Mission
Operational spacecraft
Bus & Motor
STARLINK V2MO, Unknown motor
Mass
575 kg wet, ~530 kg dry
Launch date (UTC)
2026-07-25 (3 weeks ago)
Launch vehicle
Unknown
Launch site
Air Force Western Test Range (AFWTR)
Object type
Payload
Rocket body
Debris
Shape & HBR
BOX + PAN, 17.7 m
Radar Cross Section
RCS unknown

Expand to show TLE details & history
Last TLE update: 9 hours ago

TLE from 9 hours ago
0 STARLINK-38162
1 A0159U 26171M   26227.54366343  .00194109  00000-0  12690-2 0  9999
2 A0159  97.2830 259.4033 0001179  65.5174 294.6214 15.75260633  3311
Epoch: 2026-08-15T13:02Z
TLE epoch observation values (Epoch: 2026-08-15T13:02:52.520Z)
Latitude
-0.00003°
Longitude
99.73145°
Altitude
346.728 km
Speed
7.701 km/s
True Right ascension
17h 17m 36s
True Declination
0° 00' 00"
Sunlit
Object was in full shadow at epoch
Visualization orbit readout
Latitude
Unknown
Longitude
Unknown
Altitude
Unknown
Speed
Unknown
Apparent Right ascension
Unknown
Apparent Declination
Unknown
Sunlit
N/A
Visualization observer readout
Local Sidereal Time
12:23:13
Azimuth
Unknown
Elevation
Unknown
Doppler factor
Unknown
Orbital elements
Apogee altitude
341.569 km
Perigee altitude
339.985 km
Semi-major axis
6,718.914 km
Eccentricity
0.00012
Inclination
97.283°
RAAN
259.4033°
Arg. of periapsis
65.5174°
True anomaly
294.60912°
Mean anomaly
294.6214°
Eccentric anomaly
294.61526°
Mean motion
3.94089 °/min
Orbital period
91.35 mins
BSTAR
0.001269
Loading maneuver chart data...
Computing Atmospheric mass density...
Loading historical data...
Loading historical data...
Loading historical data...
Loading historical data...
Loading historical data...
Loading historical data...
Loading historical data...

Documentation

Showing up to 5 results
|